Regional Weather Roundup
Issued by NWS

Home | Current Version | Previous Version | Text Only | Print | Product List | Glossary Off
Versions: 1 2 3 4 5 6 7 8 9 10 11 12 13 14 15 16 17 18 19 20 21 22 23 24 25 26 27 28 29 30 31 32 33 34 35 36 37 38 39 40 41 42 43 44 45 46 47 48 49 50

000
ASUS43 KIND 280909
RWRIN

WEATHER ROUNDUP FOR INDIANA
NATIONAL WEATHER SERVICE INDIANAPOLIS IN
500 AM EDT THU MAY 28 2015

NOTE: "FAIR" INDICATES FEW OR NO CLOUDS BELOW 12,000 FEET WITH NO
SIGNIFICANT WEATHER AND/OR OBSTRUCTIONS TO VISIBILITY.

* - STATION DOES NOT REPORT WEATHER SUCH AS PRECIPITATION OR FOG.

+ - STATION NOT QUALITY CONTROLLED BY THE NATIONAL WEATHER SERVICE.
    USE DATA WITH CAUTION...ESPECIALLY DEWPOINT AND RELATIVE
    HUMIDITY OBSERVATIONS.

INZ001>003-010>013-019-020-281000-
NORTHWEST INDIANA

CITY           SKY/WX    TMP DP  RH WIND       PRES   REMARKS
GARY /AIRPORT/ CLEAR     54  53  98 CALM      30.17S
KNOX *+          N/A     52  52 100 CALM      30.18S VSB 1/2
LA PORTE +     CLEAR     54  54 100 CALM      30.19S
MICHIGAN CITY+ CLEAR     52  52 100 CALM      30.18S
MONTICELLO +   CLEAR     55  55  99 CALM      30.18R
RENSSELAER +   CLEAR     54  54 100 CALM      30.18R FOG
VALPARAISO     CLEAR     54  52  93 CALM      30.18F

$$

LMZ046-743>745-281000-
SOUTHERN LAKE MICHIGAN

STATION/POSITION TIME  TEMP    WIND        PRES    WAVE
                       AIR SEA DIR/SP/G            HT
                 (UTC) (F)     (DEG/KT/KT) (MB)    (FT)
BURNS HARBOR     0900   59     180/  6/  8 1022.0S
MICHIGAN CITY    0900   58     150/  4/  4   N/A
5NW MICH CITY    0900   56 53  190/  4/  4   N/A     0

$$

INZ004-005-014>016-021>024-281000-
NORTH CENTRAL INDIANA

CITY           SKY/WX    TMP DP  RH WIND       PRES   REMARKS
GOSHEN         FOG       51  50  96 CALM      30.19S VSB 1/2
LOGANSPORT +   CLEAR     52  48  87 SE3       30.19R
PERU/GRISSOM   FOG       54  52  94 CALM      30.18R VSB 3/4
ROCHESTER +    CLEAR     54  54 100 E5        30.19R
SOUTH BEND     CLEAR     53  51  93 CALM      30.19S
WARSAW +       FOG       52  52 100 CALM      30.19F VSB 1/2

$$

INZ006>009-017-018-025>027-281000-
NORTHEAST INDIANA

CITY           SKY/WX    TMP DP  RH WIND       PRES   REMARKS
ANGOLA *+      CLOUDY    52  50  93 CALM      30.20R VSB 0
AUBURN +         N/A     52  50  93 CALM      30.20R FOG
FORT WAYNE     CLEAR     56  55  97 N5        30.20R
HUNTINGTON +   CLEAR     54  53  97 CALM      30.19R FOG

$$

INZ028-029-035-036-043>045-051>053-281000-
WEST CENTRAL INDIANA

CITY           SKY/WX    TMP DP  RH WIND       PRES   REMARKS
CRAWFORDSVL +  CLEAR     57  51  82 CALM      30.17R
GREENCASTLE +  CLEAR     57  52  82 CALM      30.18R
LAFAYETTE      CLEAR     54  53  97 CALM      30.18R FOG
TERRE HAUTE    CLEAR     63  58  83 E5        30.16S

$$

INZ030>032-037>040-046>048-054>057-064-065-281000-
CENTRAL INDIANA

CITY           SKY/WX    TMP DP  RH WIND       PRES   REMARKS
CP ATTERBURY + PTCLDY    59  59 100 W3        30.17R FOG
FRANKFORT +    CLEAR    N/A N/A N/A CALM      30.20S HAZE
GREENWOOD *+   PTCLDY    63  57  82 CALM      30.17S
INDIANAPOLIS   CLEAR     63  56  78 NE6       30.15S
-EAGLE CREEK   CLEAR     60  56  86 CALM      30.16S
KOKOMO *+      CLEAR     54  52  94 CALM      30.18S
MARION +       CLEAR     57  54  89 N6        30.19S
MT COMFORT *+  CLEAR     61 N/A N/A CALM      30.17S
SHELBYVILLE    PTCLDY    65  62  90 CALM      30.15S FOG
ZIONSVILLE +   CLEAR     56  53  89 CALM      30.18S

$$

INZ033-034-041-042-049-050-058-059-281000-
EAST CENTRAL INDIANA

CITY           SKY/WX    TMP DP  RH WIND       PRES   REMARKS
MUNCIE         CLEAR     59  55  87 N5        30.18R

$$

INZ060-061-067>069-081>083-085>088-281000-
SOUTHWEST INDIANA

CITY           SKY/WX    TMP DP  RH WIND       PRES   REMARKS
EVANSVILLE     PTCLDY    65  63  93 CALM      30.16R FOG
HUNTINGBURG *+ PTCLDY    64  61  88 S3        30.16S
WASHINGTON +   PTCLDY    64  60  87 CALM      30.15S

$$

INZ062-063-066-070>080-084-089>092-281000-
SOUTH CENTRAL AND SOUTHEAST INDIANA

CITY           SKY/WX    TMP DP  RH WIND       PRES   REMARKS
BLOOMINGTON    PTCLDY    61  59  93 CALM      30.17R FOG
MADISON *+     CLOUDY    61  59  94 CALM      30.20R VSB 1
NORTH VERNON + MOCLDY    61  61 100 CALM      30.18R FOG
SEYMOUR +      MOCLDY    61  61 100 CALM      30.16R FOG

$$




USA.gov is the U.S. government's official web portal to all federal, state and local government web resources and services.